No particular awareness of the weather is required.    There are no Weather-warnings


Meteo18 Weather Cam more information Meteo18 Weather Cam


Thunder radar more information blitzortung!


Rain radar more information rain snow radar


Visit our other weather sites:

Template documentation
and downloads

And another site



Weather Underground History page Text

Daily Summary for December 2, 2017 Units:  English    Metric   Both
« Previous Day
Next Day »
Daily Weekly Monthly Yearly Custom
  High: Low: Average:
Temperature: TemperatureC °F -0.9 °F 0.3 °F
Dew Point: DewpointC °F -2.0 °F -1.2 °F
Humidity: Humidity % 83 % 89 %
Wind Speed: WindSpeedKMH mph 0.0 mph 9.2 mph
Wind Gust: WindSpeedGustKMH mph - -
Wind:- - SSW
Pressure: PressurehPa in 1020.9 in -
Precipitation: 0.3 in    
Historical Graphs
 
 
Tabular Data for December 2, 2017
Time Temperature Dew Point Pressure Wind Wind Speed Wind Gust Humidity Rainfall Rate (Hourly)
TemperatureC °F DewpointC °F PressurehPa in Calm     Humidity % HourlyPrecipMM in
00:02 0.4 °F -0.7 °F 1020.9 in NW 4.8 mph 19.3 mph 92 % 0.0 in
00:12 0.4 °F -0.7 °F 1021.2 in NNW 8.0 mph 17.7 mph 92 % 0.0 in
00:32 0.4 °F -0.7 °F 1021.2 in North 9.7 mph 20.9 mph 92 % 0.0 in
00:42 0.2 °F -0.8 °F 1021.2 in North 8.0 mph 16.1 mph 93 % 0.0 in
00:47 0.2 °F -0.8 °F 1021.2 in North 9.7 mph 17.7 mph 93 % 0.0 in
00:52 0.2 °F -0.8 °F 1021.2 in NNW 9.7 mph 17.7 mph 93 % 0.0 in
01:02 0.3 °F -0.7 °F 1021.2 in NNE 6.4 mph 20.9 mph 93 % 0.0 in
01:07 0.3 °F -0.7 °F 1021.2 in North 14.5 mph 20.9 mph 93 % 0.0 in
01:12 0.2 °F -0.9 °F 1021.2 in NNE 8.0 mph 20.9 mph 92 % 0.0 in
01:22 0.2 °F -0.9 °F 1021.2 in NNE 12.9 mph 24.1 mph 92 % 0.0 in
01:27 0.2 °F -0.9 °F 1021.2 in North 8.0 mph 24.1 mph 92 % 0.0 in
01:32 0.2 °F -0.9 °F 1021.6 in ENE 1.6 mph 24.1 mph 92 % 0.0 in
01:37 0.2 °F -0.9 °F 1021.2 in North 3.2 mph 19.3 mph 92 % 0.0 in
01:42 0.1 °F -1.0 °F 1021.6 in North 11.3 mph 17.7 mph 92 % 0.0 in
01:47 0.1 °F -1.0 °F 1021.6 in North 8.0 mph 17.7 mph 92 % 0.0 in
01:57 0.2 °F -0.8 °F 1021.6 in NNE 8.0 mph 17.7 mph 93 % 0.0 in
02:02 0.2 °F -0.8 °F 1021.6 in North 3.2 mph 17.7 mph 93 % 0.0 in
02:12 0.3 °F -0.7 °F 1021.6 in NNE 8.0 mph 16.1 mph 93 % 0.0 in
02:22 0.3 °F -0.7 °F 1021.6 in North 1.6 mph 16.1 mph 93 % 0.0 in
02:27 0.3 °F -0.7 °F 1021.6 in NNW 8.0 mph 16.1 mph 93 % 0.0 in
02:32 0.3 °F -0.7 °F 1021.6 in NNE 8.0 mph 16.1 mph 93 % 0.0 in
02:37 0.3 °F -0.7 °F 1021.9 in NNE 8.0 mph 16.1 mph 93 % 0.0 in
02:42 0.3 °F -0.7 °F 1021.9 in North 9.7 mph 14.5 mph 93 % 0.0 in
02:47 0.3 °F -0.7 °F 1021.9 in NW 1.6 mph 14.5 mph 93 % 0.0 in
02:52 0.3 °F -0.7 °F 1021.9 in NNE 4.8 mph 14.5 mph 93 % 0.0 in
02:57 0.3 °F -0.7 °F 1021.9 in NW 4.8 mph 12.9 mph 93 % 0.0 in
03:02 0.3 °F -0.7 °F 1021.9 in NNW 6.4 mph 14.5 mph 93 % 0.0 in
03:17 0.4 °F -0.6 °F 1021.9 in NNE 3.2 mph 17.7 mph 93 % 0.0 in
03:22 0.4 °F -0.6 °F 1021.9 in ENE 8.0 mph 17.7 mph 93 % 0.0 in
03:27 0.4 °F -0.6 °F 1021.9 in ENE 14.5 mph 17.7 mph 93 % 0.0 in
03:32 0.4 °F -0.6 °F 1021.9 in North 9.7 mph 19.3 mph 93 % 0.0 in
03:37 0.4 °F -0.6 °F 1021.9 in NNW 6.4 mph 19.3 mph 93 % 0.0 in
03:42 0.4 °F -0.6 °F 1021.9 in NNE 12.9 mph 19.3 mph 93 % 0.0 in
03:52 0.4 °F -0.6 °F 1021.9 in NNW 11.3 mph 20.9 mph 93 % 0.0 in
03:57 0.4 °F -0.6 °F 1021.9 in NNW 12.9 mph 20.9 mph 93 % 0.0 in
04:02 0.4 °F -0.6 °F 1021.9 in NE 8.0 mph 20.9 mph 93 % 0.0 in
04:07 0.4 °F -0.6 °F 1021.9 in NNE 14.5 mph 22.5 mph 93 % 0.0 in
04:22 0.5 °F -0.6 °F 1021.9 in NNE 9.7 mph 25.7 mph 92 % 0.0 in
04:32 0.5 °F -0.6 °F 1021.9 in NNE 6.4 mph 20.9 mph 92 % 0.0 in
04:42 0.5 °F -0.6 °F 1022.2 in NNE 9.7 mph 20.9 mph 92 % 0.0 in
04:47 0.4 °F -0.6 °F 1021.9 in NW 4.8 mph 14.5 mph 93 % 0.0 in
04:57 0.4 °F -0.7 °F 1022.2 in NW 6.4 mph 19.3 mph 92 % 0.0 in
05:02 0.4 °F -0.7 °F 1022.2 in North 9.7 mph 19.3 mph 92 % 0.0 in
05:12 0.4 °F -0.7 °F 1022.2 in North 9.7 mph 17.7 mph 92 % 0.0 in
05:17 0.4 °F -0.7 °F 1022.2 in Calm   16.1 mph 92 % 0.0 in
05:22 0.4 °F -0.7 °F 1022.6 in North 1.6 mph 12.9 mph 92 % 0.0 in
05:32 0.4 °F -0.7 °F 1022.6 in NE 4.8 mph 11.3 mph 92 % 0.0 in
05:52 0.4 °F -1.0 °F 1022.6 in NNE 11.3 mph 20.9 mph 90 % 0.0 in
05:57 0.4 °F -1.0 °F 1022.6 in NNE 6.4 mph 20.9 mph 90 % 0.0 in
06:02 0.4 °F -1.0 °F 1022.6 in North 8.0 mph 19.3 mph 90 % 0.0 in
06:07 0.4 °F -1.0 °F 1022.6 in NNE 3.2 mph 14.5 mph 90 % 0.0 in
06:12 0.4 °F -1.0 °F 1022.6 in Calm   14.5 mph 90 % 0.0 in
06:17 0.4 °F -0.9 °F 1022.6 in Calm   14.5 mph 91 % 0.0 in
06:27 0.4 °F -0.9 °F 1022.9 in North 6.4 mph 11.3 mph 91 % 0.0 in
06:32 0.4 °F -0.7 °F 1022.9 in ENE 3.2 mph 12.9 mph 92 % 0.0 in
06:42 0.4 °F -0.7 °F 1022.9 in NNE 3.2 mph 16.1 mph 92 % 0.0 in
06:47 0.3 °F -0.8 °F 1022.9 in North 3.2 mph 16.1 mph 92 % 0.0 in
06:52 0.3 °F -0.8 °F 1022.9 in NNW 1.6 mph 16.1 mph 92 % 0.0 in
06:57 0.3 °F -0.8 °F 1022.9 in North 3.2 mph 12.9 mph 92 % 0.0 in
07:02 0.3 °F -0.8 °F 1022.9 in NE 3.2 mph 16.1 mph 92 % 0.0 in
07:17 0.3 °F -0.8 °F 1022.9 in NNW 3.2 mph 17.7 mph 92 % 0.0 in
07:22 0.3 °F -0.8 °F 1022.9 in North 12.9 mph 17.7 mph 92 % 0.0 in
07:37 0.3 °F -1.0 °F 1023.2 in NNW 6.4 mph 17.7 mph 91 % 0.0 in
07:42 0.2 °F -1.1 °F 1023.2 in NW 4.8 mph 17.7 mph 91 % 0.0 in
07:47 0.2 °F -1.1 °F 1023.2 in NNE 8.0 mph 19.3 mph 91 % 0.0 in
07:57 0.2 °F -1.1 °F 1023.2 in NE 3.2 mph 17.7 mph 91 % 0.0 in
08:12 0.3 °F -1.0 °F 1023.2 in NNW 9.7 mph 17.7 mph 91 % 0.0 in
08:22 0.3 °F -1.0 °F 1023.2 in NNE 3.2 mph 17.7 mph 91 % 0.0 in
08:27 0.3 °F -1.1 °F 1023.2 in NNE 11.3 mph 19.3 mph 90 % 0.0 in
08:32 0.2 °F -1.2 °F 1023.2 in NW 6.4 mph 19.3 mph 90 % 0.0 in
08:37 0.2 °F -1.2 °F 1023.2 in ENE 1.6 mph 19.3 mph 90 % 0.0 in
08:42 0.1 °F -1.3 °F 1023.2 in NNW 9.7 mph 17.7 mph 90 % 0.0 in
08:47 0.1 °F -1.2 °F 1023.6 in WNW 3.2 mph 17.7 mph 91 % 0.0 in
08:57 0.1 °F -1.2 °F 1023.6 in NNE 9.7 mph 14.5 mph 91 % 0.0 in
09:02 0.2 °F -1.2 °F 1023.2 in NNE 6.4 mph 19.3 mph 90 % 0.0 in
09:17 0.3 °F -1.3 °F 1023.6 in NNE 14.5 mph 20.9 mph 89 % 0.0 in
09:22 0.3 °F -1.3 °F 1023.6 in NNE 12.9 mph 25.7 mph 89 % 0.0 in
09:42 0.5 °F -1.3 °F 1023.6 in NNE 11.3 mph 25.7 mph 88 % 0.0 in
09:47 0.6 °F -1.2 °F 1023.6 in NW 9.7 mph 25.7 mph 88 % 0.0 in
09:52 0.6 °F -1.2 °F 1023.6 in WNW 4.8 mph 30.6 mph 88 % 0.0 in
09:57 0.5 °F -1.3 °F 1023.6 in NNW 16.1 mph 30.6 mph 88 % 0.0 in
10:02 0.5 °F -1.3 °F 1023.9 in NW 16.1 mph 30.6 mph 88 % 0.0 in
10:07 0.6 °F -1.2 °F 1023.9 in NW 11.3 mph 29.0 mph 88 % 0.0 in
10:12 0.6 °F -1.0 °F 1024.3 in NE 8.0 mph 29.0 mph 89 % 0.0 in
10:22 0.5 °F -1.3 °F 1024.3 in NNW 17.7 mph 30.6 mph 88 % 0.0 in
10:37 0.4 °F -1.4 °F 1024.3 in North 12.9 mph 32.2 mph 88 % 0.0 in
10:42 0.4 °F -1.4 °F 1024.6 in NNE 6.4 mph 25.7 mph 88 % 0.0 in
10:57 0.4 °F -1.4 °F 1024.6 in North 9.7 mph 27.4 mph 88 % 0.0 in
11:02 0.4 °F -1.4 °F 1024.6 in North 9.7 mph 30.6 mph 88 % 0.0 in
11:12 0.6 °F -1.2 °F 1024.6 in NE 16.1 mph 25.7 mph 88 % 0.0 in
11:22 0.6 °F -1.3 °F 1024.6 in NNE 19.3 mph 30.6 mph 87 % 0.0 in
11:27 0.5 °F -1.4 °F 1024.6 in NE 35.4 mph 35.4 mph 87 % 0.0 in
11:37 0.6 °F -1.3 °F 1024.6 in NE 25.7 mph 35.4 mph 87 % 0.0 in
11:52 0.9 °F -1.0 °F 1024.3 in NE 11.3 mph 32.2 mph 87 % 0.0 in
11:57 0.9 °F -1.0 °F 1024.3 in NNW 9.7 mph 24.1 mph 87 % 0.0 in
12:02 0.9 °F -1.0 °F 1024.3 in NE 9.7 mph 27.4 mph 87 % 0.0 in
12:22 1.0 °F -1.2 °F 1024.3 in North 17.7 mph 22.5 mph 85 % 0.0 in
12:27 1.1 °F -1.0 °F 1024.3 in NNW 11.3 mph 27.4 mph 86 % 0.3 in
12:42 1.5 °F -0.7 °F 1023.9 in NNW 11.3 mph 29.0 mph 85 % 0.3 in
12:47 1.3 °F -1.1 °F 1023.9 in North 25.7 mph 30.6 mph 84 % 0.3 in
12:52 1.3 °F -1.1 °F 1023.9 in North 14.5 mph 30.6 mph 84 % 0.3 in
13:02 1.5 °F -0.7 °F 1023.9 in NNW 6.4 mph 30.6 mph 85 % 0.3 in
13:07 1.6 °F -0.8 °F 1023.9 in NE 20.9 mph 30.6 mph 84 % 0.3 in
13:12 1.6 °F -0.8 °F 1023.9 in NNE 16.1 mph 30.6 mph 84 % 0.3 in
13:22 1.8 °F -0.6 °F 1023.9 in NNE 11.3 mph 32.2 mph 84 % 0.0 in
13:37 1.8 °F -0.8 °F 1023.9 in NNE 12.9 mph 37.0 mph 83 % 0.0 in
13:52 1.8 °F -0.6 °F 1024.3 in NNW 8.0 mph 30.6 mph 84 % 0.0 in
14:17 1.9 °F -0.7 °F 1023.9 in North 17.7 mph 30.6 mph 83 % 0.0 in
14:22 1.8 °F -0.8 °F 1023.9 in North 17.7 mph 30.6 mph 83 % 0.0 in
14:27 1.8 °F -0.8 °F 1023.9 in NNW 12.9 mph 30.6 mph 83 % 0.0 in
14:37 1.8 °F -0.8 °F 1024.3 in NW 8.0 mph 35.4 mph 83 % 0.0 in
14:52 2.0 °F -0.6 °F 1024.3 in NNW 14.5 mph 30.6 mph 83 % 0.0 in
14:57 1.9 °F -0.7 °F 1024.3 in NNW 16.1 mph 29.0 mph 83 % 0.0 in
15:02 1.8 °F -0.8 °F 1024.3 in NNW 11.3 mph 32.2 mph 83 % 0.0 in
15:12 1.6 °F -1.0 °F 1024.3 in North 24.1 mph 35.4 mph 83 % 0.0 in
15:17 1.7 °F -0.9 °F 1024.3 in NNE 8.0 mph 35.4 mph 83 % 0.0 in
15:22 1.7 °F -0.7 °F 1024.3 in NNW 19.3 mph 35.4 mph 84 % 0.0 in
15:27 1.6 °F -0.8 °F 1024.6 in North 25.7 mph 32.2 mph 84 % 0.0 in
15:32 1.4 °F -1.0 °F 1024.6 in NNW 16.1 mph 32.2 mph 84 % 0.0 in
15:37 1.4 °F -0.8 °F 1024.6 in North 14.5 mph 32.2 mph 85 % 0.0 in
15:42 1.4 °F -0.8 °F 1024.6 in NNW 17.7 mph 30.6 mph 85 % 0.0 in
15:47 1.3 °F -1.1 °F 1024.6 in NW 8.0 mph 30.6 mph 84 % 0.0 in
15:57 1.3 °F -1.1 °F 1024.6 in North 12.9 mph 29.0 mph 84 % 0.0 in
16:32 1.0 °F -1.2 °F 1024.9 in North 19.3 mph 27.4 mph 85 % 0.0 in
16:37 0.9 °F -1.3 °F 1024.9 in NNE 8.0 mph 27.4 mph 85 % 0.0 in
16:42 0.8 °F -1.4 °F 1024.9 in NW 8.0 mph 30.6 mph 85 % 0.0 in
16:47 0.7 °F -1.4 °F 1025.3 in NNE 3.2 mph 30.6 mph 86 % 0.0 in
16:52 0.5 °F -1.6 °F 1025.3 in North 12.9 mph 24.1 mph 86 % 0.0 in
17:12 0.2 °F -1.6 °F 1024.9 in NNW 4.8 mph 17.7 mph 88 % 0.0 in
17:17 0.1 °F -1.7 °F 1025.3 in North 8.0 mph 17.7 mph 88 % 0.0 in
17:27 0.1 °F -1.7 °F 1025.3 in NNW 14.5 mph 16.1 mph 88 % 0.0 in
17:42 0.0 °F -1.6 °F 1025.3 in NNW 4.8 mph 16.1 mph 89 % 0.0 in
17:47 0.0 °F -1.6 °F 1025.3 in NNW 3.2 mph 17.7 mph 89 % 0.0 in
17:52 -0.1 °F -1.7 °F 1025.3 in NNW 6.4 mph 17.7 mph 89 % 0.0 in
18:02 -0.1 °F -1.5 °F 1025.3 in NW 6.4 mph 19.3 mph 90 % 0.0 in
18:07 -0.1 °F -1.7 °F 1025.3 in NW 8.0 mph 19.3 mph 89 % 0.0 in
18:12 -0.1 °F -1.7 °F 1025.3 in NNE 6.4 mph 17.7 mph 89 % 0.0 in
18:17 -0.2 °F -1.8 °F 1025.6 in NNW 3.2 mph 16.1 mph 89 % 0.0 in
18:22 -0.2 °F -1.6 °F 1025.6 in NNW 4.8 mph 14.5 mph 90 % 0.0 in
18:42 -0.4 °F -1.8 °F 1026.0 in NW 9.7 mph 16.1 mph 90 % 0.0 in
18:52 -0.4 °F -1.8 °F 1026.0 in North 11.3 mph 17.7 mph 90 % 0.0 in
18:57 -0.4 °F -1.8 °F 1026.0 in North 9.7 mph 17.7 mph 90 % 0.0 in
19:02 -0.5 °F -1.8 °F 1026.3 in NNW 6.4 mph 19.3 mph 91 % 0.0 in
19:07 -0.6 °F -1.9 °F 1026.3 in North 8.0 mph 19.3 mph 91 % 0.0 in
19:12 -0.6 °F -1.9 °F 1026.3 in NNW 8.0 mph 20.9 mph 91 % 0.0 in
19:17 -0.6 °F -1.9 °F 1026.6 in North 8.0 mph 20.9 mph 91 % 0.0 in
19:22 -0.6 °F -1.9 °F 1026.6 in NNW 11.3 mph 19.3 mph 91 % 0.0 in
19:32 -0.6 °F -1.9 °F 1026.6 in NW 8.0 mph 22.5 mph 91 % 0.0 in
19:37 -0.7 °F -2.0 °F 1026.6 in North 11.3 mph 22.5 mph 91 % 0.0 in
19:42 -0.7 °F -2.0 °F 1026.6 in NE 16.1 mph 22.5 mph 91 % 0.0 in
19:52 -0.7 °F -2.0 °F 1027.0 in NNW 9.7 mph 25.7 mph 91 % 0.0 in
19:57 -0.7 °F -2.0 °F 1027.0 in NNW 8.0 mph 25.7 mph 91 % 0.0 in
20:02 -0.7 °F -2.0 °F 1027.0 in NNW 8.0 mph 25.7 mph 91 % 0.0 in
20:12 -0.7 °F -2.0 °F 1027.0 in NNE 8.0 mph 20.9 mph 91 % 0.0 in
20:17 -0.7 °F -2.0 °F 1027.0 in NNE 6.4 mph 25.7 mph 91 % 0.0 in
20:22 -0.7 °F -2.0 °F 1027.3 in NNE 6.4 mph 25.7 mph 91 % 0.0 in
20:37 -0.7 °F -1.8 °F 1027.3 in NE 8.0 mph 19.3 mph 92 % 0.0 in
20:42 -0.7 °F -1.8 °F 1027.3 in NE 19.3 mph 20.9 mph 92 % 0.0 in
20:47 -0.7 °F -1.8 °F 1027.3 in North 16.1 mph 25.7 mph 92 % 0.0 in
20:52 -0.7 °F -1.8 °F 1027.3 in NNE 11.3 mph 27.4 mph 92 % 0.0 in
21:07 -0.6 °F -1.7 °F 1027.3 in NNE 4.8 mph 27.4 mph 92 % 0.0 in
21:12 -0.6 °F -1.7 °F 1027.3 in West 8.0 mph 24.1 mph 92 % 0.0 in
21:17 -0.6 °F -1.7 °F 1027.7 in North 8.0 mph 24.1 mph 92 % 0.0 in
21:27 -0.6 °F -1.7 °F 1027.7 in North 9.7 mph 24.1 mph 92 % 0.0 in
21:42 -0.6 °F -1.7 °F 1027.3 in NNE 11.3 mph 22.5 mph 92 % 0.0 in
21:57 -0.6 °F -1.7 °F 1027.7 in North 4.8 mph 20.9 mph 92 % 0.0 in
22:02 -0.6 °F -1.7 °F 1027.7 in NE 3.2 mph 19.3 mph 92 % 0.0 in
22:12 -0.6 °F -1.7 °F 1027.7 in NNW 6.4 mph 17.7 mph 92 % 0.0 in
22:17 -0.6 °F -1.9 °F 1027.7 in North 3.2 mph 17.7 mph 91 % 0.0 in
22:22 -0.6 °F -1.7 °F 1027.7 in NE 3.2 mph 17.7 mph 92 % 0.0 in
22:27 -0.6 °F -1.7 °F 1027.7 in NNW 6.4 mph 16.1 mph 92 % 0.0 in
22:32 -0.6 °F -1.7 °F 1027.7 in NNW 9.7 mph 24.1 mph 92 % 0.0 in
22:37 -0.6 °F -1.7 °F 1028.0 in NNW 6.4 mph 24.1 mph 92 % 0.0 in
22:42 -0.6 °F -1.7 °F 1028.0 in NNW 8.0 mph 24.1 mph 92 % 0.0 in
22:52 -0.7 °F -1.8 °F 1028.0 in NE 3.2 mph 17.7 mph 92 % 0.0 in
22:57 -0.7 °F -1.8 °F 1028.0 in NNW 8.0 mph 17.7 mph 92 % 0.0 in
23:12 -0.7 °F -1.8 °F 1028.0 in North 8.0 mph 19.3 mph 92 % 0.0 in
23:17 -0.7 °F -1.8 °F 1028.0 in NNW 4.8 mph 19.3 mph 92 % 0.0 in
23:22 -0.7 °F -1.8 °F 1028.0 in NNW 8.0 mph 16.1 mph 92 % 0.0 in
23:27 -0.8 °F -1.9 °F 1028.0 in NNW 6.4 mph 12.9 mph 92 % 0.0 in
23:42 -0.8 °F -1.9 °F 1028.0 in NNE 9.7 mph 17.7 mph 92 % 0.0 in
23:47 -0.9 °F -2.0 °F 1028.0 in NNW 9.7 mph 17.7 mph 92 % 0.0 in
23:57 -0.9 °F -2.0 °F 1028.0 in NNW 8.0 mph 17.7 mph 92 % 0.0 in
Meteo18
Compliments of Weather Underground - 4 mb

Script developed by  Jim McMurry - jmcmurry@mwt.net Adapted for the template by  Wim van der Kuil - Leuven-Template.eu

You find our weather info also at:

European Weather Network

Weather Underground

Equipment we use:

Weather-station
Davis Vue

Weather-program
Meteobridge

Weather-server
Raspberry PI 2 B+

Provider
1 and 1

Davis Vue

Meteobridge

Raspberry PI 2 B+

1 and 1